Latest Weather Observations for Sydney - Observatory Hill

IDN60801

Issued at 5:05 pm EST Saturday 26 July 2014 (issued every 30 minutes, with the page automatically refreshed every 10 minutes)

About weather observations | Map of weather stations | Latest weather observations for NSW | Other Formats
Station Details ID: 066062 Name: SYDNEY (OBSERVATORY HILL) Lat: -33.86 Lon: 151.21 Height: 39.0 m
Data from the previous 72 hours. | See also: Recent months at Sydney - Observatory Hill

* Apparent temperature (App Temp) for Sydney - Observatory Hill is calculated using temperature observations collected at Sydney - Observatory Hill and wind observations collected at Fort Denison, as wind observations are not currently provided for Sydney - Observatory Hill.

Date/Time
EST
Temp
°C
App
Temp
°C
Dew
Point
Rel
Hum
%
Delta-T
°C
Wind Press
QNH
hPa
Press
MSL
hPa
Rain
since 9 am
mm
Dir
 
Spd
km/h
Gust
km/h
Spd
kts
Gust
kts
26/05:00pm 15.9 13.7 6.1 52 4.7 - 7 - 4 - 1021.1 1021.1 4.2
26/04:30pm 16.5 14.3 5.5 48 5.3 - 6 - 3 - 1020.9 - 4.2
26/04:00pm 17.0 14.7 5.0 45 5.7 - 6 - 3 - 1020.7 1020.7 4.2
26/03:30pm 18.4 15.7 5.6 43 6.3 - 9 - 5 - 1020.6 - 4.2
26/03:00pm 17.2 11.4 4.2 42 6.1 - 24 - 13 - 1020.4 1020.4 4.2
26/02:30pm 17.7 15.5 10.8 64 3.7 - 13 - 7 - 1020.7 - 4.2
26/02:00pm 17.8 16.7 11.8 68 3.3 - 9 - 5 - 1020.5 1020.5 4.2
26/01:30pm 16.6 15.2 12.2 75 2.4 - 11 - 6 - 1020.5 - 4.2
26/01:00pm 15.4 13.8 12.9 85 1.4 - 13 - 7 - 1021.2 1021.2 4.2
26/12:30pm 13.5 11.5 11.6 88 1.0 - 13 - 7 - 1022.2 - 4.2
26/12:00pm 13.1 11.0 11.2 88 1.0 - 13 - 7 - 1022.6 1022.6 4.2
26/11:30am 13.1 11.4 11.2 88 1.0 - 11 - 6 - 1022.9 - 4.2
26/11:00am 13.1 11.4 11.2 88 1.0 - 11 - 6 - 1023.9 1023.9 4.2
26/10:30am 12.9 9.6 11.0 88 1.0 - 19 - 10 - 1023.2 - 4.2
26/10:00am 12.5 11.7 10.9 90 0.8 - 6 - 3 - 1024.3 1024.3 3.6
26/09:30am 12.8 12.0 11.2 90 0.8 - 6 - 3 - 1024.2 - 2.6
26/09:00am 13.0 9.3 11.4 90 0.8 - 22 - 12 - 1024.9 1024.9 8.2
26/08:30am 13.2 12.6 11.6 90 0.9 - 6 - 3 - 1024.1 - 7.4
26/08:00am 13.2 12.6 11.6 90 0.8 - 6 - 3 - 1024.0 1024.0 7.4
26/07:30am 13.3 11.7 11.7 90 0.9 - 11 - 6 - 1024.2 - 6.6
26/07:00am 13.2 11.6 11.4 89 1.0 - 11 - 6 - 1024.2 1024.2 4.2
26/06:30am 13.3 12.5 11.2 87 1.1 - 6 - 3 - 1023.7 - 3.4
26/06:00am 13.2 12.2 10.9 86 1.2 - 7 - 4 - 1023.2 1023.2 3.4
26/05:30am 13.3 10.3 10.8 85 1.3 - 17 - 9 - 1023.4 - 2.6
26/05:00am 13.9 10.4 10.3 79 1.9 - 19 - 10 - 1022.8 1022.8 1.0
26/04:30am 14.3 11.9 10.1 76 2.2 - 13 - 7 - 1022.0 - 0.8
26/04:00am 14.3 13.2 9.9 75 2.3 - 6 - 3 - 1022.0 1022.0 0.8
26/03:30am 14.7 13.4 10.1 74 2.4 - 7 - 4 - 1022.3 - 0.8
26/03:00am 14.9 13.6 10.1 73 2.5 - 7 - 4 - 1022.2 1022.2 0.8
26/02:30am 15.0 13.5 10.4 74 2.4 - 9 - 5 - 1022.3 - 0.8
26/02:00am 14.6 13.5 10.0 74 2.4 - 6 - 3 - 1022.5 1022.5 0.8
26/01:30am 15.3 14.6 10.1 71 2.7 - 4 - 2 - 1022.5 - 0.8
26/01:00am 15.5 14.8 10.1 70 2.8 - 4 - 2 - 1022.6 1022.6 0.8
26/12:30am 15.9 15.2 10.0 68 3.1 - 4 - 2 - 1022.7 - 0.8
26/12:00am 16.3 16.0 10.2 67 3.2 - 2 - 1 - 1022.9 1022.9 0.8
 
Date/Time
EST
Temp
°C
App
Temp
°C
Dew
Point
Rel
Hum
%
Delta-T
°C
Wind Press
QNH
hPa
Press
MSL
hPa
Rain
since 9 am
mm
Dir
 
Spd
km/h
Gust
km/h
Spd
kts
Gust
kts
25/11:30pm 16.5 16.2 10.1 66 3.4 - 2 - 1 - 1023.0 - 0.8
25/11:00pm 16.7 16.0 10.1 65 3.5 - 4 - 2 - 1022.8 1022.8 0.8
25/10:30pm 16.8 15.6 10.2 65 3.5 - 7 - 4 - 1022.9 - 0.8
25/10:00pm 16.9 15.3 10.1 64 3.6 - 9 - 5 - 1022.7 1022.7 0.8
25/09:30pm 17.0 15.7 9.9 63 3.7 - 7 - 4 - 1022.8 - 0.8
25/09:00pm 17.1 15.4 10.0 63 3.7 - 9 - 5 - 1022.8 1022.8 0.8
25/08:30pm 16.8 15.0 9.5 62 3.8 - 9 - 5 - 1022.5 - 0.8
25/08:00pm 17.3 15.1 9.5 60 4.1 - 11 - 6 - 1022.4 1022.4 0.8
25/07:30pm 17.4 14.4 9.3 59 4.2 - 15 - 8 - 1022.2 - 0.8
25/07:00pm 17.7 14.3 9.3 58 4.4 - 17 - 9 - 1021.8 1021.8 0.8
25/06:30pm 17.9 14.2 9.3 57 4.5 - 19 - 10 - 1021.6 - 0.8
25/06:00pm 17.9 14.2 9.3 57 4.5 - 19 - 10 - 1020.9 1020.9 0.8
25/05:30pm 18.3 14.4 9.4 56 4.7 - 20 - 11 - 1020.7 - 0.8
25/05:00pm 18.3 14.6 10.2 59 4.3 - 20 - 11 - 1020.4 1020.4 0.8
25/04:30pm 18.5 15.0 10.3 59 4.4 - 19 - 10 - 1020.3 - 0.8
25/04:00pm 18.6 16.1 10.9 61 4.2 - 15 - 8 - 1020.2 1020.2 0.8
25/03:30pm 18.3 16.0 10.4 60 4.2 - 13 - 7 - 1020.1 - 0.8
25/03:00pm 18.3 15.6 10.2 59 4.3 - 15 - 8 - 1019.9 1019.9 0.8
25/02:30pm 18.6 14.1 10.2 58 4.5 - 24 - 13 - 1019.6 - 0.8
25/02:00pm 18.4 15.7 10.3 59 4.3 - 15 - 8 - 1019.8 1019.8 0.8
25/01:30pm 18.1 15.1 10.7 62 4.0 - 17 - 9 - 1020.1 - 0.8
25/01:00pm 17.2 14.8 11.5 69 3.1 - 15 - 8 - 1020.2 1020.2 0.8
25/12:30pm 16.1 13.8 10.6 70 2.9 - 13 - 7 - 1020.6 - 0.8
25/12:00pm 16.0 12.3 10.3 69 3.0 - 20 - 11 - 1021.1 1021.1 0.8
25/11:30am 15.3 9.8 10.7 74 2.4 - 30 - 16 - 1021.3 - 0.8
25/11:00am 13.8 11.6 10.8 82 1.6 - 13 - 7 - 1022.6 1022.6 0.8
25/10:30am 12.9 9.3 9.9 82 1.5 - 19 - 10 - 1022.9 - 0.6
25/10:00am 12.9 9.7 10.1 83 1.4 - 17 - 9 - 1023.1 1023.1 0.2
25/09:30am 11.4 7.8 8.4 82 1.5 - 17 - 9 - 1023.3 - 0.0
25/09:00am 11.5 9.5 8.5 82 1.5 - 9 - 5 - 1023.0 1023.0 0.0
25/08:30am 10.5 9.4 8.4 87 1.0 - 4 - 2 - 1022.2 - 0.0
25/08:00am 10.1 6.0 8.0 87 1.0 - 19 - 10 - 1022.3 1022.3 0.0
25/07:30am 9.7 7.2 8.0 89 0.8 - 11 - 6 - 1021.9 - 0.0
25/07:00am 9.7 6.0 8.0 89 0.8 - 17 - 9 - 1021.7 1021.7 0.0
25/06:30am 9.7 7.5 8.0 89 0.8 - 9 - 5 - 1021.1 - 0.0
25/06:00am 9.7 7.9 7.8 88 0.9 - 7 - 4 - 1020.5 1020.5 0.0
25/05:30am 9.8 7.2 7.6 86 1.1 - 11 - 6 - 1020.5 - 0.0
25/05:00am 10.1 7.9 7.7 85 1.1 - 9 - 5 - 1020.1 1020.1 0.0
25/04:30am 10.5 8.0 8.1 85 1.2 - 11 - 6 - 1020.2 - 0.0
25/04:00am 10.9 9.1 8.1 83 1.4 - 7 - 4 - 1020.0 1020.0 0.0
25/03:30am 11.4 9.7 8.3 81 1.5 - 7 - 4 - 1020.0 - 0.0
25/03:00am 11.5 9.8 8.4 81 1.5 - 7 - 4 - 1020.1 1020.1 0.0
25/02:30am 12.0 10.9 8.5 79 1.7 - 4 - 2 - 1020.1 - 0.0
25/02:00am 12.2 10.8 8.9 80 1.6 - 6 - 3 - 1020.1 1020.1 0.0
25/01:30am 12.0 10.4 8.7 80 1.6 - 7 - 4 - 1020.0 - 0.0
25/01:00am 12.0 9.2 8.5 79 1.7 - 13 - 7 - 1020.0 1020.0 0.0
25/12:30am 12.5 10.1 8.8 78 1.9 - 11 - 6 - 1020.1 - 0.0
25/12:00am 13.1 12.1 8.8 75 2.2 - 4 - 2 - 1020.1 1020.1 0.0
 
Date/Time
EST
Temp
°C
App
Temp
°C
Dew
Point
Rel
Hum
%
Delta-T
°C
Wind Press
QNH
hPa
Press
MSL
hPa
Rain
since 9 am
mm
Dir
 
Spd
km/h
Gust
km/h
Spd
kts
Gust
kts
24/11:30pm 12.9 10.9 8.6 75 2.1 - 9 - 5 - 1020.5 - 0.0
24/11:00pm 13.2 10.1 8.7 74 2.3 - 15 - 8 - 1020.8 1020.8 0.0
24/10:30pm 14.1 11.7 8.7 70 2.7 - 11 - 6 - 1020.8 - 0.0
24/10:00pm 14.0 12.4 8.6 70 2.7 - 7 - 4 - 1020.8 1020.8 0.0
24/09:30pm 14.8 13.3 9.0 68 3.0 - 7 - 4 - 1020.9 - 0.0
24/09:00pm 15.4 14.5 9.3 67 3.1 - 4 - 2 - 1020.9 1020.9 0.0
24/08:30pm 15.5 13.3 9.2 66 3.2 - 11 - 6 - 1020.7 - 0.0
24/08:00pm 15.6 13.2 8.6 63 3.6 - 11 - 6 - 1020.4 1020.4 0.0
24/07:30pm 15.8 14.1 8.3 61 3.8 - 7 - 4 - 1020.3 - 0.0
24/07:00pm 15.4 14.7 8.6 64 3.4 - 2 - 1 - 1020.0 1020.0 0.0
24/06:30pm 15.4 14.2 8.2 62 3.6 - 4 - 2 - 1019.9 - 0.0
24/06:00pm 15.8 14.7 8.3 61 3.8 - 4 - 2 - 1019.6 1019.7 0.0
24/05:30pm 16.4 15.7 8.4 59 4.1 - 2 - 1 - 1019.4 - 0.0
24/05:00pm 16.6 15.4 8.1 57 4.3 - 4 - 2 - 1019.3 1019.4 0.0
24/04:30pm 16.7 14.5 7.9 56 4.4 - 9 - 5 - 1019.2 - 0.0
24/04:00pm 17.1 14.5 7.7 54 4.7 - 11 - 6 - 1019.2 1019.3 0.0
24/03:30pm 17.7 14.6 7.2 50 5.3 - 13 - 7 - 1019.0 - 0.0
24/03:00pm 19.7 17.6 8.4 48 5.9 - 9 - 5 - 1019.1 1019.2 0.0
24/02:30pm 18.8 17.3 8.5 51 5.3 - 6 - 3 - 1019.0 - 0.0
24/02:00pm 16.6 15.5 8.6 59 4.1 - 4 - 2 - 1019.4 1019.5 0.0
24/01:30pm 16.7 15.3 9.4 62 3.8 - 7 - 4 - 1020.0 - 0.0
24/01:00pm 15.8 14.3 9.2 65 3.4 - 7 - 4 - 1020.4 1020.4 0.0
24/12:30pm 15.5 14.3 9.6 68 3.1 - 6 - 3 - 1020.8 - 0.0
24/12:00pm 15.3 14.1 9.4 68 3.0 - 6 - 3 - 1021.0 1021.0 0.0
24/11:30am 15.5 13.9 10.1 70 2.8 - 9 - 5 - 1021.7 - 0.0
24/11:00am 14.6 13.3 9.8 73 2.5 - 7 - 4 - 1022.0 1022.0 0.0
24/10:30am 13.8 11.3 9.8 77 2.1 - 13 - 7 - 1022.8 - 0.0
24/10:00am 13.0 10.4 9.4 79 1.8 - 13 - 7 - 1022.7 1022.7 0.0
24/09:30am 12.1 9.8 9.1 82 1.5 - 11 - 6 - 1022.7 - 0.0
24/09:00am 10.9 8.4 8.1 83 1.4 - 11 - 6 - 1022.5 1022.5 0.0
24/08:30am 10.7 8.2 8.3 85 1.2 - 11 - 6 - 1022.3 - 0.0
24/08:00am 9.4 6.7 7.5 88 0.9 - 11 - 6 - 1022.2 1022.2 0.0
24/07:30am 9.2 5.5 8.0 92 0.6 - 17 - 9 - 1022.4 - 0.0
24/07:00am 8.6 5.5 7.2 91 0.7 - 13 - 7 - 1022.0 1022.0 0.0
24/06:30am 8.7 5.6 7.3 91 0.7 - 13 - 7 - 1021.8 - 0.0
24/06:00am 8.7 5.2 7.3 91 0.7 - 15 - 8 - 1021.4 1021.4 0.0
24/05:30am 8.8 6.5 7.4 91 0.7 - 9 - 5 - 1021.1 - 0.0
24/05:00am 9.0 6.0 7.5 90 0.7 - 13 - 7 - 1021.1 1021.1 0.0
24/04:30am 9.1 6.4 7.5 90 0.8 - 11 - 6 - 1021.0 - 0.0
24/04:00am 9.4 6.4 7.7 89 0.8 - 13 - 7 - 1021.0 1021.0 0.0
24/03:30am 9.7 7.9 8.1 90 0.8 - 7 - 4 - 1021.0 - 0.0
24/03:00am 9.7 7.2 8.0 89 0.8 - 11 - 6 - 1021.2 1021.2 0.0
24/02:30am 9.8 7.6 7.9 88 0.9 - 9 - 5 - 1021.3 - 0.0
24/02:00am 9.8 7.6 7.9 88 0.9 - 9 - 5 - 1021.4 1021.4 0.0
24/01:30am 10.0 7.5 8.1 88 0.9 - 11 - 6 - 1021.9 - 0.0
24/01:00am 10.3 7.4 8.2 87 1.0 - 13 - 7 - 1022.2 1022.2 0.0
24/12:30am 10.5 8.0 8.3 86 1.1 - 11 - 6 - 1022.1 - 0.0
24/12:00am 10.7 7.9 8.5 86 1.1 - 13 - 7 - 1022.4 1022.4 0.0
 
Date/Time
EST
Temp
°C
App
Temp
°C
Dew
Point
Rel
Hum
%
Delta-T
°C
Wind Press
QNH
hPa
Press
MSL
hPa
Rain
since 9 am
mm
Dir
 
Spd
km/h
Gust
km/h
Spd
kts
Gust
kts
23/11:30pm 11.0 7.8 8.4 84 1.3 - 15 - 8 - 1022.7 - 0.0
23/11:00pm 11.8 9.4 8.8 82 1.5 - 11 - 6 - 1022.6 1022.6 0.0
23/10:30pm 12.7 11.4 9.2 79 1.8 - 6 - 3 - 1022.8 - 0.0
23/10:00pm 13.3 12.4 9.2 76 2.1 - 4 - 2 - 1023.1 1023.1 0.0
23/09:30pm 14.3 14.2 9.5 73 2.5 CALM 0 - 0 - 1023.1 - 0.0
23/09:00pm 14.8 14.0 9.8 72 2.6 - 4 - 2 - 1023.0 1023.0 0.0
23/08:30pm 14.9 13.8 9.9 72 2.6 - 6 - 3 - 1022.8 - 0.0
23/08:00pm 15.1 14.0 9.9 71 2.7 - 6 - 3 - 1022.7 1022.7 0.0
23/07:30pm 15.3 12.8 9.7 69 2.9 - 13 - 7 - 1022.5 - 0.0
23/07:00pm 15.4 12.8 9.5 68 3.0 - 13 - 7 - 1022.4 1022.4 0.0
23/06:30pm 15.5 13.4 9.6 68 3.1 - 11 - 6 - 1022.4 - 0.0
23/06:00pm 15.4 13.2 9.3 67 3.1 - 11 - 6 - 1022.3 1022.3 0.0
23/05:30pm 15.5 13.3 9.4 67 3.2 - 11 - 6 - 1022.1 - 0.0

Other Formats:

Comma delimited format used in spreadsheet applications
http://www.bom.gov.au/fwo/IDN60801/IDN60801.94768.axf

JavaScript Object Notation format (JSON) in row-major order
http://www.bom.gov.au/fwo/IDN60801/IDN60801.94768.json